Simultaneous Nadir Overpasses (SNOs) Predictions

Prediction of SNOs between AQUA and NOAA-19 Satellite Orbit:

Table of predicted SNOs for the next 14.0 days since TLE Epoch: 8/9/2014
Index Date (AQUA) Time (AQUA) Lat,Lon (AQUA) SZA (AQUA ) Date (NOAA-19) Time (NOAA-19) Lat,Lon (NOAA-19) SZA (NOAA-19 ) Distance(km) Time Diff (sec)
1 08/09/2014 04:25:00 -77.62, -83.13 117.66 08/09/2014 04:24:26 -77.63, -83.18 117.64 1.43 34
2 08/09/2014 05:14:13 76.96, 87.12 61.55 08/09/2014 05:15:07 76.95, 87.20 61.52 2.59 54
3 08/11/2014 09:09:21 -77.79,-154.94 116.80 08/11/2014 09:08:18 -77.80,-154.98 116.78 0.94 63
4 08/11/2014 09:58:37 77.28, 14.82 62.57 08/11/2014 09:59:03 77.29, 14.77 62.58 1.39 26
5 08/13/2014 14:42:56 77.39, -56.66 63.36 08/13/2014 14:42:53 77.38, -56.56 63.34 2.69 3
6 08/15/2014 19:27:17 77.59,-128.59 64.29 08/15/2014 19:26:46 77.59,-128.50 64.28 2.39 31
7 08/15/2014 20:16:28 -76.96, 41.55 116.49 08/15/2014 20:17:35 -76.95, 41.67 116.52 3.07 67
8 08/18/2014 00:11:39 77.91, 158.99 65.36 08/18/2014 00:10:41 77.91, 158.90 65.40 2.31 58
9 08/18/2014 01:00:50 -77.23, -30.54 115.47 08/18/2014 01:01:29 -77.22, -30.46 115.49 2.16 39
10 08/20/2014 05:45:10 -77.42,-102.37 114.53 08/20/2014 05:45:21 -77.41,-102.27 114.55 2.77 11
11 08/22/2014 10:29:32 -77.72,-174.67 113.44 08/22/2014 10:29:16 -77.72,-174.72 113.43 1.39 16




NCC Satellite Simultaneous Nadir Overpasses (SNOs) Prediction Service
